Weather History for Ocala, FL

Change the Weather History Date:

Tuesday, March 5, 2013

  Actual Average Record
Temperature  
Mean Temperature 54 °F -  
Max Temperature 73 °F 73 °F 87 °F (1997)
Min Temperature 35 °F 48 °F 26 °F (2002)
Degree Days  
Heating Degree Days 11    
Growing Degree Days 4 (Base 50)    
Moisture  
Dew Point 41 °F    
Average Humidity 68    
Maximum Humidity 87    
Minimum Humidity 41    
Precipitation  
Precipitation 0.00 in - - ()
Sea Level Pressure  
Sea Level Pressure 30.10 in    
Wind  
Wind Speed 5 mph (SW)    
Max Wind Speed 20 mph    
Max Gust Speed 24 mph    
Visibility 10 miles    
Events      
Averages and records for this station are not official NWS values.
T = Trace of Precipitation, MM = Missing Value Source: NWS Daily Summary

Daily Weather History Graph

Daily Weather History Graph

Search for Another Location

Airport:

Trip Planner

Search our weather history database for the weather conditions in past years. The results will help you decide how hot, cold, wet, or windy it might be!

Date:

Astronomy

Mar. 05, 2013 Rise Set
Actual Time 6:49 AM EST 6:31 PM EST
Civil Twilight 6:25 AM EST 6:55 PM EST
Nautical Twilight 5:58 AM EST 7:22 PM EST
Astronomical Twilight 5:30 AM EST 7:50 PM EST
Moon 1:40 AM EST (3/5) 12:29 PM EST (3/5)
Length of Visible Light 12h 29m
Length of Day
11h 41m
Last Quarter, 41% of the Moon is Illuminated
Mar 5
Last Quarter
Mar 11
New
Mar 19
First Quarter
Mar 27
Full
Apr 3
Last Quarter

Hourly Weather History & Observations

Time (EST) Temp. Windchill Dew Point Humidity Pressure Visibility Wind Dir Wind Speed Gust Speed Precip Events Conditions
12:15 AM 39.2 °F - 30.2 °F 70% 30.16 in 10.0 mi Calm Calm - N/A   Clear
12:35 AM 39.2 °F 35.9 °F 30.2 °F 70% 30.16 in 10.0 mi SE 4.6 mph - N/A   Clear
12:55 AM 37.4 °F - 30.2 °F 75% 30.15 in 10.0 mi Calm Calm - N/A   Clear
1:15 AM 39.2 °F - 30.2 °F 70% 30.15 in 10.0 mi Calm Calm - N/A   Clear
2:35 AM 35.6 °F - 30.2 °F 81% 30.15 in 10.0 mi Calm Calm - N/A   Clear
2:55 AM 37.4 °F - 30.2 °F 75% 30.14 in 10.0 mi Calm Calm - N/A   Clear
3:15 AM 37.4 °F 34.9 °F 30.2 °F 75% 30.14 in 10.0 mi SSW 3.5 mph - N/A   Clear
3:35 AM 35.6 °F - 30.2 °F 81% 30.13 in 10.0 mi Calm Calm - N/A   Clear
3:55 AM 35.6 °F - 30.2 °F 81% 30.13 in 10.0 mi Calm Calm - N/A   Clear
4:15 AM 35.6 °F - 30.2 °F 81% 30.15 in 10.0 mi Calm Calm - N/A   Clear
4:35 AM 35.6 °F - 30.2 °F 81% 30.15 in 10.0 mi Calm Calm - N/A   Clear
4:55 AM 35.6 °F 32.8 °F 30.2 °F 81% 30.15 in 10.0 mi North 3.5 mph - N/A   Clear
5:15 AM 35.6 °F - 30.2 °F 81% 30.15 in 10.0 mi Calm Calm - N/A   Clear
5:35 AM 35.6 °F 32.8 °F 30.2 °F 81% 30.16 in 10.0 mi North 3.5 mph - N/A   Clear
5:55 AM 35.6 °F - 30.2 °F 81% 30.16 in 10.0 mi Calm Calm - N/A   Clear
6:15 AM 35.6 °F - 30.2 °F 81% 30.17 in 10.0 mi Calm Calm - N/A   Clear
6:35 AM 35.6 °F 32.8 °F 30.2 °F 81% 30.18 in 10.0 mi North 3.5 mph - N/A   Clear
6:50 AM 35.6 °F - 32.0 °F 87% 30.18 in 10.0 mi Calm Calm - N/A   Partly Cloudy
8:50 AM 51.8 °F - 37.4 °F 58% 30.20 in 10.0 mi SSW 8.1 mph - N/A   Clear
9:50 AM 59.0 °F - 37.4 °F 45% 30.19 in 10.0 mi SW 9.2 mph - N/A   Clear
10:50 AM 64.4 °F - 41.0 °F 42% 30.18 in 10.0 mi SW 12.7 mph 17.3 mph N/A   Clear
11:50 AM 68.0 °F - 46.4 °F 46% 30.16 in 10.0 mi WSW 11.5 mph - N/A   Partly Cloudy
12:50 PM 71.6 °F - 48.2 °F 43% 30.12 in 10.0 mi West 11.5 mph 19.6 mph N/A   Partly Cloudy
1:50 PM 71.6 °F - 48.2 °F 43% 30.09 in 10.0 mi SSW 17.3 mph 24.2 mph N/A   Clear
2:50 PM 73.4 °F - 48.2 °F 41% 30.08 in 10.0 mi SW 11.5 mph 23.0 mph N/A   Partly Cloudy
3:50 PM 73.4 °F - 48.2 °F 41% 30.07 in 10.0 mi West 15.0 mph 19.6 mph N/A   Clear
4:50 PM 71.6 °F - 46.4 °F 41% 30.04 in 10.0 mi SW 19.6 mph - N/A   Clear
5:50 PM 69.8 °F - 48.2 °F 46% 30.04 in 10.0 mi SW 11.5 mph - N/A   Clear
7:55 PM 64.4 °F - 51.8 °F 64% 30.01 in 10.0 mi SSW 15.0 mph - N/A   Clear
8:15 PM 62.6 °F - 51.8 °F 68% 30.02 in 10.0 mi SSW 12.7 mph - N/A   Clear
8:35 PM 62.6 °F - 51.8 °F 68% 30.02 in 10.0 mi SSW 12.7 mph - N/A   Clear
8:55 PM 62.6 °F - 51.8 °F 68% 30.02 in 10.0 mi SSW 12.7 mph - N/A   Partly Cloudy
9:15 PM 62.6 °F - 51.8 °F 68% 30.02 in 10.0 mi SSW 13.8 mph - N/A   Partly Cloudy
9:35 PM 62.6 °F - 51.8 °F 68% 30.02 in 10.0 mi SSW 13.8 mph - N/A   Clear
9:55 PM 62.6 °F - 51.8 °F 68% 30.02 in 10.0 mi SSW 15.0 mph - N/A   Partly Cloudy
10:15 PM 62.6 °F - 53.6 °F 72% 30.02 in 10.0 mi SSW 15.0 mph 21.9 mph N/A   Partly Cloudy
10:35 PM 62.6 °F - 53.6 °F 72% 30.01 in 10.0 mi SSW 13.8 mph - N/A   Partly Cloudy
10:55 PM 62.6 °F - 53.6 °F 72% 30.01 in 10.0 mi SSW 15.0 mph - N/A   Scattered Clouds
11:15 PM 62.6 °F - 53.6 °F 72% 30.01 in 10.0 mi SSW 11.5 mph - N/A   Scattered Clouds
11:35 PM 60.8 °F - 53.6 °F 77% 30.00 in 10.0 mi SW 11.5 mph - N/A   Partly Cloudy
11:55 PM 62.6 °F - 53.6 °F 72% 29.99 in 10.0 mi SSW 15.0 mph - N/A   Scattered Clouds